Location: Clegg Observatory
(38.9178°N, 78.6069°W)
Time: 09:49:31
(UTC-04:00)

Daily predictions for brighter satellites

Satellite Brightness Start Highest point End
(mag) Time Altitude Azimuth Time Altitude Azimuth Time Altitude Azimuth
Spot 2 Rocket 4.4 19:20:48 10° SE 19:25:01 27° ENE 19:29:13 10° N
Meteor 1-24 Rocket 3.7 19:22:13 10° N 19:27:48 61° ENE 19:33:09 10° SSE
Cosmos 1707 2.9 19:24:25 10° N 19:28:17 81° W 19:32:07 10° S
COSMOS 2441 4.5 19:24:23 10° SSE 19:29:14 87° WSW 19:34:07 10° NNW
Cosmos 2369 Rocket 4.2 19:28:41 10° NE 19:29:16 10° NE 19:29:51 10° NE
Helios 1A 4.2 19:27:22 10° ESE 19:30:38 22° ENE 19:33:54 10° NNE
Cosmos 2056 Rocket 3.6 19:25:27 10° NNW 19:30:54 72° ENE 19:36:17 10° SSE
ATLAS CENTAUR R/B 3.3 19:26:55 10° SSW 19:31:15 64° ESE 19:44:22 10° NE
Meteor 2-5 Rocket 4.1 19:25:44 10° NNW 19:31:20 70° W 19:36:49 10° S
Cosmos 2346 Rocket 4.4 19:27:38 10° N 19:33:44 84° E 19:39:46 10° S
Cosmos 1371 Rocket 4.4 19:35:21 10° NNW 19:40:37 70° WSW 19:45:55 10° S
SJ-6B 2.9 19:37:49 10° SSE 19:41:43 62° ENE 19:45:44 10° N
GPS 2-04 Rocket1 4.3 19:40:33 10° SSW 19:42:55 17° SSE 19:45:05 11° ESE
COSMO-SKYMED 1 3.5 19:40:43 10° N 19:44:58 54° WNW 19:49:12 10° SSW
Cosmos 2333 Rocket 4.2 19:41:58 10° WSW 19:47:04 32° WNW 19:52:12 10° N
Cosmos 192 4.3 19:45:40 10° S 19:50:36 76° ESE 19:55:35 10° NNE
NOAA 12 4.0 19:45:41 10° SSE 19:50:54 74° ENE 19:56:11 10° N
Spot 1 4.4 19:46:56 10° SSE 19:51:35 54° ENE 19:56:00 10° N
Timation 1 Rocket 4.3 19:46:15 10° NNW 19:52:13 70° ENE 19:58:09 10° SSE
Cosmos 1758 3.8 19:48:46 10° SSE 19:52:35 40° E 19:56:27 10° NNE
HJ-1C 3.8 19:50:46 10° SE 19:53:56 42° ENE 19:57:09 10° N
USA 215 3.2 19:50:25 10° NE 19:56:57 70° SE 20:03:26 10° SW
In-Cosmos 22 4.3 19:51:31 10° N 19:57:14 57° ENE 20:02:51 10° SSE
Aureole 2 Rocket 3.8 19:54:58 10° SSW 19:59:16 54° WNW 20:03:30 10° N
OAO 3 Rocket 3.5 19:54:47 10° WSW 19:59:24 53° S 20:02:48 18° ESE
ISS -1.8 19:57:51 10° S 20:00:12 19° SE 20:00:33 18° ESE
Cosmos 1484 Rocket 4.5 19:56:59 10° SSW 20:00:31 36° W 20:04:08 10° NNW
Cosmos 1674 4.2 19:58:33 10° NNE 20:01:18 18° ENE 20:01:38 18° E
Cosmos 1766 Rocket 3.5 20:00:34 10° N 20:04:55 65° E 20:09:14 10° SSE
ASTRO E2 4.1 20:02:26 10° WSW 20:05:53 27° S 20:08:09 17° SE
ALOS 2.8 20:04:00 11° SE 20:08:06 37° ENE 20:12:24 10° N
CZ-4C R/B 4.3 20:03:35 10° W 20:08:08 26° NW 20:13:08 10° NNE
Cosmos 2034 Rocket 3.9 20:03:57 10° S 20:10:10 72° E 20:16:29 10° N
Cosmos 1464 Rocket 4.1 20:05:47 10° S 20:12:02 82° W 20:18:16 10° N
BREEZE-M TANK 4.1 20:03:11 10° WNW 20:12:12 44° SW 20:15:15 12° SSE
Helios 1B rocket 2.3 20:08:31 10° NNE 20:12:38 76° ESE 20:16:44 10° S
Meteor 1-29 2.9 20:09:42 10° NNE 20:13:11 62° E 20:16:38 10° S
ATLAS 5 CENTAUR R/B 1.9 20:09:22 10° SW 20:14:06 79° NW 20:19:15 10° NNE
Meteor 1-21 Rocket 4.2 20:08:50 10° N 20:14:19 58° ENE 20:19:45 10° SSE
Cosmos 1076 Rocket 3.7 20:11:53 10° N 20:16:13 75° W 20:20:32 10° S
Atlas Centaur 2 4.2 20:09:37 10° W 20:17:00 33° SSW 20:23:25 12° SE
SeaSat 1 3.3 20:13:38 10° NE 20:17:49 27° ESE 20:21:58 10° SSE
Cosmos-2242 2.9 20:16:40 10° S 20:21:00 80° E 20:25:24 10° N
CZ-4B DEB 3.0 20:23:55 43° E 20:24:20 46° ENE 20:27:30 10° N
Cosmos 1452 Rocket 3.5 20:22:11 10° NNW 20:27:28 85° WSW 20:32:42 10° SSE
SL-16 R/B 3.7 20:25:07 10° SW 20:30:21 37° WNW 20:35:38 10° N
ATLAS CENTAUR R/B 4.1 20:31:55 10° WNW 20:34:09 15° WSW 20:36:19 10° SW
CZ-2D R/B 3.3 20:33:52 45° ESE 20:34:39 54° ENE 20:38:28 10° N
Cosmos 1842 Rocket 3.5 20:32:00 10° S 20:36:12 53° E 20:40:26 10° NNE
Cosmos 1500 Rocket 3.7 20:34:18 10° N 20:38:38 51° E 20:39:25 45° ESE
SL-8 R/B 3.5 20:35:38 10° SW 20:40:24 76° SE 20:42:03 40° ENE
Cosmos 1544 3.3 20:37:45 10° SSW 20:41:28 71° W 20:45:13 10° N
Gbstr 26 Del rocket 3.5 20:41:33 10° SSW 20:45:49 46° SE 20:45:51 46° SE
Cosmos 1953 3.7 20:42:51 10° SSW 20:46:38 40° WNW 20:50:24 10° N
Cosmos 1420 Rocket 3.9 20:44:17 10° NNW 20:49:36 84° ENE 20:52:00 34° SSE
H-2A R/B 2.6 20:50:09 67° SSE 20:50:39 86° ENE 20:54:33 10° N
FENGYUN 3A 3.6 20:47:47 14° S 20:52:31 82° WSW 20:57:56 10° NNW
Resurs 01 Rocket 3.2 20:51:05 10° SSW 20:55:09 35° W 20:59:15 10° NNW
ASTEX 1 3.5 20:53:53 10° N 20:58:48 76° W 21:03:40 10° SSW
Abrixas 4.5 20:58:26 10° WSW 21:00:02 28° WSW 21:00:02 28° WSW
CENTAUR R/B 2.3 20:59:01 10° SSW 21:04:57 71° ESE 21:11:38 10° NE
Cosmos 1743 Rocket 4.4 21:02:45 10° NNW 21:07:03 49° W 21:09:33 23° SSW
Cosmos 1048 Rocket 4.3 21:02:07 10° SSW 21:07:24 67° WNW 21:12:38 10° NNE
Cosmos 1943 3.0 21:07:44 10° SSW 21:13:22 82° ESE 21:19:00 10° NNE
Cosmos 1470 3.5 21:13:51 50° W 21:13:51 50° W 21:17:38 10° N
Cosmos 2369 Rocket 2.1 21:08:47 10° NNW 21:14:17 65° ENE 21:14:17 65° ENE
Envisat 4.1 21:16:19 32° NNE 21:16:19 32° NNE 21:19:23 10° N
Cosmos 1943 Rocket 3.5 21:13:16 10° N 21:16:40 27° NNE 21:16:40 27° NNE
GP-B 3.8 21:20:06 10° N 21:23:33 50° NNW 21:23:33 50° NNW
Cosmos 1655 Rocket 4.0 21:20:53 10° N 21:26:29 64° NE 21:26:29 64° NE
Cosmos 1092 Rocket 4.5 21:22:43 10° NNW 21:28:47 58° W 21:32:27 24° SSW
USA 215 4.4 21:33:44 10° NE 21:39:39 38° NNW 21:45:33 10° W
Cosmos 2026 Rocket 4.0 21:37:12 10° N 21:42:57 76° NW 21:42:57 76° NW
ERS-1 Rocket 4.3 21:55:08 35° NNW 21:55:08 35° NNW 21:58:07 10° NNW
SeaSat 1 3.8 21:50:50 10° N 21:55:21 37° WNW 21:59:52 10° WSW
CENTAUR R/B 4.4 22:51:13 10° W 22:56:19 25° NW 23:01:55 10° NNE
